Regional Weather Roundup
Issued by NWS Cleveland, OH

Home | Current Version | Previous Version | Graphics & Text | Print | Product List | Glossary On
Versions: 1 2 3 4 5 6 7 8 9 10 11 12 13 14 15 16 17 18 19 20 21 22 23 24 25 26 27 28 29 30 31 32 33 34 35 36 37 38 39 40 41 42 43 44 45 46 47 48 49 50
962
ASUS41 KCLE 010610
RWRCLE
OHIO REGIONAL WEATHER ROUNDUP
NATIONAL WEATHER SERVICE WILMINGTON, OH
200 AM EDT WED JUN 01 2016

NOTE: "FAIR" INDICATES FEW OR NO CLOUDS BELOW 12,000 FEET WITH NO
SIGNIFICANT WEATHER AND/OR OBSTRUCTIONS TO VISIBILITY.

OHZ001>008-015>018-024>027-034-035-043-044-010700-
   NORTHWEST OHIO

CITY           SKY/WX    TMP DP  RH WIND       PRES   REMARKS
DEFIANCE       FAIR      65  50  58 E7        30.02S
FINDLAY        FAIR      67  47  48 E10       30.01F
TOLEDO EXPRESS FAIR      59  54  83 NE6       30.03F
TOLEDO EXEC    FAIR      64  55  72 NE6       30.05F
LIMA           FAIR      66  48  52 E10       30.01F
$$

OHZ009>014-019>023-028>033-038-089-010700-
   NORTHEAST OHIO

CITY           SKY/WX    TMP DP  RH WIND       PRES   REMARKS
CLE-HOPKINS    MOCLDY    68  47  46 NE9       30.06S
CLE-LAKEFRONT  FAIR      66  53  63 NE7       30.03S
CUY CO. ARPT   NOT AVBL
LORAIN-ELYRIA  FAIR      61  53  75 CALM      30.04F
ASHTABULA      FAIR      54  53  97 CALM      30.05S
AKRON-CANTON   FAIR      63  50  62 NE8       30.04S
WOOSTER        FAIR      61  51  70 NE5       30.05S
MANSFIELD      FAIR      64  50  60 NE6       30.05S
YOUNGSTOWN     FAIR      61  51  70 CALM      30.04S
$$

OHZ042-051>053-060>062-070>072-077>081-010700-
  SOUTHWEST OHIO

CITY           SKY/WX    TMP DP  RH WIND       PRES   REMARKS
CINC-COVINGTON FAIR      68  60  75 CALM      29.98F
CINC-LUNKEN    FAIR      63  63 100 CALM      29.98S
HAMILTON       FAIR      63  61  93 CALM      29.98F
DAYTON         FAIR      70  57  63 E8        30.00F
WRIGHT-PAT AFB FAIR      70  58  65 NE3       29.99F
DAYTON GENERAL FAIR      72  59  63 E8        29.98F
WILMINGTON     FAIR      70  61  73 E6        29.99F
$$

OHZ036-037-039>041-045>050-054>059-063>069-073>076-082>088-010700-
  CENTRAL AND SOUTHEAST OHIO

CITY           SKY/WX    TMP DP  RH WIND       PRES   REMARKS
COLUMBUS       FAIR      69  55  60 CALM      30.00F
OSU AIRPORT    FAIR      67  55  65 E6        30.00F
BOLTON FIELD   FAIR      69  58  67 E3        30.01S
RICKENBACK AFB FAIR      67  58  74 E6        29.99F
NEWARK         FAIR      70  55  59 CALM      30.01S
MARION         FAIR      62  53  72 NE7       30.03S
LANCASTER      FAIR      66  59  78 CALM      30.01F
ZANESVILLE     FAIR      68  58  70 CALM      30.01S
NEW PHILLY     FAIR      65  53  65 CALM      30.03S
$$




USA.gov is the U.S. government's official web portal to all federal, state and local government web resources and services.